#timestamp,LO_Frequency,Hit,StdDev 
1669021215.3,286047011.6,N
1669021235.2,286047010.0,N
1669021255.9,286047009.7,N
1669021275.7,286047010.9,N
1669021295.6,286047011.7,N
1669021315.4,286047014.9,N
1669021335.3,286047017.1,Y
1669021355.1,286047005.0,P
1669021356.0,286047005.0,N
1669021375.8,286047008.0,N
1669021395.7,286047010.1,Y
1669021415.5,286047003.2,P
1669021435.3,286047004.3,N
1669021455.2,286047007.1,P
1669021475.0,286047007.5,Y
1669021475.9,286047007.5,P
1669021495.8,286047002.9,N
1669021515.6,286047004.8,N
1669021535.4,286047005.0,Y
1669021555.3,286047005.2,P
1669021575.1,286047007.1,P
1669021595.9,286047009.5,P
1669021615.7,286047009.8,Y
1669021635.5,286047007.2,P
1669021655.4,286047003.1,P
1669021675.2,286047005.5,N
1669021695.0,286047005.7,Y
1669021695.9,286047005.7,P
1669021715.8,286047001.1,P
1669021735.6,286046999.4,N
1669021755.5,286047002.0,N
1669021775.3,286047003.6,N
1669021795.1,286047004.0,N
1669021815.9,286047003.2,N
1669021835.7,286047005.1,N
1669021855.5,286047005.7,N
1669021875.4,286047007.1,Y
1669021895.2,286047003.9,P
1669021915.1,286047004.0,P
1669021916.0,286047004.0,P
1669021935.8,286047003.6,Y
1669021955.6,286047002.1,P
1669021975.5,286047002.3,N
1669021995.3,286047001.5,N
1669022015.2,286047004.1,Y
1669022035.9,286047001.5,P
1669022055.7,286047005.9,P
1669022075.6,286047003.1,N
1669022095.4,286047005.6,Y
1669022115.2,286046999.7,P
1669022135.1,286047001.9,N
1669022136.0,286047001.9,N
1669022155.8,286047003.2,N
1669022175.7,286047003.4,N
1669022195.5,286047003.3,N
1669022215.3,286047003.7,N
1669022235.2,286047007.5,Y
1669022255.0,286047003.0,P
1669022255.9,286047003.0,P
1669022275.7,286047005.9,P
1669022295.6,286047006.3,Y
1669022315.4,286047005.7,P
1669022335.3,286047004.9,P
1669022355.1,286047007.3,P
1669022356.0,286047007.3,Y
1669022375.8,286046998.5,P
1669022395.7,286047000.0,N
1669022415.5,286047002.8,N
1669022435.4,286047001.8,N
1669022455.2,286047001.7,N
1669022475.0,286047002.9,N
1669022475.9,286047002.9,N
1669022495.8,286047006.0,Y
1669022515.6,286047004.0,P
1669022535.4,286047004.2,P
1669022555.3,286047005.4,P
1669022575.1,286047004.7,Y
1669022595.9,286047001.7,P
1669022615.7,286047004.0,P
1669022635.5,286047007.6,P
1669022655.4,286047011.7,Y
1669022675.2,286047004.9,P
1669022695.0,286047006.0,P
1669022696.0,286047006.0,P
1669022715.8,286047006.2,Y
1669022735.6,286047000.0,P
1669022755.5,286047000.9,N
1669022775.3,286047000.4,N
1669022795.1,286046999.9,N
1669022815.9,286047000.5,N
1669022835.7,286047002.7,N
1669022855.6,286047001.5,N
1669022875.4,286047003.2,N
1669022895.2,286047007.5,Y
1669022915.1,286047004.8,P
1669022916.0,286047004.8,N
1669022935.8,286047005.9,P
1669022955.6,286047005.5,Y
1669022975.5,286047002.4,P
1669022995.3,286047005.5,P
1669023015.2,286047004.5,P
1669023035.9,286047005.4,Y
1669023055.7,286047002.5,P
1669023075.6,286047001.4,N
1669023095.4,286047002.4,N
1669023115.3,286047004.1,Y
1669023135.1,286046999.8,P
1669023136.0,286046999.8,N
1669023155.8,286047001.4,N
1669023175.7,286047004.2,Y
1669023195.5,286047002.9,P
1669023215.3,286047005.6,P
1669023235.2,286047005.2,N
1669023255.0,286047005.3,N
1669023255.9,286047005.3,N
1669023275.8,286047006.9,Y
1669023295.6,286047005.0,P
1669023315.4,286047009.1,P
1669023335.3,286047007.4,P
1669023355.1,286047007.6,Y
1669023375.9,286046998.6,P
1669023395.7,286047001.2,N
1669023415.5,286046999.1,N
1669023435.4,286047001.0,N
1669023455.2,286047000.5,N
1669023475.0,286047002.1,N
1669023475.9,286047002.1,N
1669023495.8,286047001.7,N
1669023515.6,286047007.6,Y
1669023535.5,286047004.7,P
1669023555.3,286047007.0,P
1669023575.1,286047006.1,N
1669023595.9,286047007.0,Y
1669023615.7,286046999.8,P
1669023665.6,286047001.8,E
1669023675.5,286047001.5,N
1669023695.3,286047001.8,P
1669023715.2,286047000.5,P
1669023735.0,286047000.4,N
1669023735.9,286047000.4,N
1669023755.8,286047004.4,Y
1669023775.6,286047002.4,P
1669023795.4,286047002.4,P
1669023815.3,286047003.7,P
1669023835.1,286047003.1,Y
1669023855.8,286047006.0,P
1669023875.7,286047006.7,P
1669023895.5,286047005.1,N
1669023915.4,286047004.5,N
1669023935.2,286047006.7,Y
1669023955.0,286047001.6,P
1669023955.9,286047001.6,N
1669023975.8,286047002.7,N
1669023995.6,286047003.0,N
1669024015.5,286047005.6,Y
1669024035.3,286047002.7,P
1669024085.2,286047000.3,E
1669024095.1,286047000.0,N
1669024096.0,286047000.0,P
1669024115.8,286047000.3,P
1669024135.7,286047000.8,Y
1669024155.5,286047002.7,P
1669024175.3,286047003.9,N
1669024195.2,286047006.6,P
1669024215.0,286047009.2,Y
1669024215.9,286047009.2,P
1669024235.8,286047004.4,N
1669024255.6,286047004.1,N
1669024275.4,286047004.9,N
1669024295.3,286047007.4,Y
1669024315.1,286046999.8,P
1669024335.8,286047004.1,N
1669024355.7,286047002.2,N
1669024375.5,286047000.2,N
1669024395.4,286047002.3,N
1669024415.2,286047003.1,N
1669024435.0,286047002.0,N
1669024435.9,286047002.0,N
1669024455.8,286047001.8,N
1669024475.6,286047005.6,Y
1669024495.4,286047001.3,P
1669024515.3,286047001.5,P
1669024535.1,286047002.1,P
1669024555.9,286047001.4,Y
1669024575.7,286047000.6,P
1669024595.5,286047000.4,N
1669024615.4,286047001.6,N
1669024635.2,286047003.0,Y
1669024655.1,286047003.1,P
1669024656.0,286047003.1,P
1669024675.8,286047008.8,P
1669024695.6,286047008.7,Y
1669024715.5,286047004.5,P
1669024735.3,286047004.6,P
1669024755.1,286047008.1,P
1669024775.9,286047016.4,Y
1669024795.7,286047015.4,P
